Hourly Data Report for September 29, 2017

All times are specified in Local Standard Time (LST). Add 1 hour to adjust for Daylight Saving Time where and when it is observed.

ALGONQUIN PARK EAST GATE
ONTARIO

45°32'00.000" N
78°16'00.000" W
397.00 m
6080192
71581
TNK

Download Data

Hourly Data (September 2017)
Hourly Data Report for September 29, 2017
Temp Definition
°C
Dew Point Temp Definition
°C
Rel Hum Definition
%
Wind Dir Definition
10's deg

Wind Spd Definition
km/h
Visibility Definition
km
Stn Press Definition
kPa
Hmdx Definition


Wind Chill Definition


Weather Definition


TIME
00:00 1.4 0.1 91   0   97.08     LegendNANA
01:00 0.7 -0.6 92   0   97.07     LegendNANA
02:00 0.2 -0.8 93   0   97.08     LegendNANA
03:00 0.3 -0.4 95   0   97.06     LegendNANA
04:00 0.3 -0.4 96   0   97.04     LegendNANA
05:00 0.1 -0.5 96   0   97.05     LegendNANA
06:00 -0.2 -0.8 96   0   97.06     LegendNANA
07:00 1.2 0.6 96   0   97.05     LegendNANA
08:00 3.3 2.4 94 36 1   96.97     LegendNANA
09:00 6.7 4.7 87   0   97.00     LegendNANA
10:00 9.1 3.9 70 13 3   96.98     LegendNANA
11:00 9.1 4.6 74 4 2   96.96     LegendNANA
12:00 7.9 6.1 88   0   96.96     LegendNANA
13:00 7.5 5.7 88 2 3   96.94     LegendNANA
14:00 7.6 6.1 90 7 3   96.92     LegendNANA
15:00 7.6 6.2 91 3 5   96.92     LegendNANA
16:00 7.5 6.0 90 8 3   96.97     LegendNANA
17:00 7.3 5.6 89 5 6   97.05     LegendNANA
18:00 6.2 4.5 89 5 5   97.15     LegendNANA
19:00 5.9 4.5 91 6 3   97.24     LegendNANA
20:00 6.1 4.8 92 5 2   97.32     LegendNANA
21:00 6.1 4.7 91 5 4   97.38     LegendNANA
22:00 5.5 3.9 89 3 5   97.45     LegendNANA
23:00 5.2 3.6 90 1 3   97.50     LegendNANA

Notes on Data Quality.

Legend

  • E = Estimated
  • M = Missing
  • NA = Not Available
  • ‡ = Partner data that is not subject to review by the National Climate Archives
Date modified: